Time,TemperatureF,DewpointF,PressureIn,WindDirection,WindDirectionDegrees,WindSpeedMPH,WindSpeedGustMPH,Humidity,HourlyPrecipIn,Conditions,Clouds,dailyrainin,SoftwareType,DateUTC
2013-03-20 00:02:00,18.0,1.0,-100.00,WNW,290,12.0,21.0,47,-99.99,,,-99.99,,2013-03-20 05:02:00,
2013-03-20 00:33:00,16.0,0.0,-100.00,WNW,285,7.0,18.0,48,-99.99,,,-99.99,,2013-03-20 05:33:00,
2013-03-20 00:43:00,16.0,0.0,-100.00,WNW,285,7.0,18.0,48,-99.99,,,-99.99,,2013-03-20 05:43:00,
2013-03-20 00:53:00,16.0,0.0,-100.00,WNW,285,7.0,18.0,48,-99.99,,,-99.99,,2013-03-20 05:53:00,
2013-03-20 01:02:00,16.0,0.0,-100.00,WNW,285,7.0,18.0,48,-99.99,,,-99.99,,2013-03-20 06:02:00,
2013-03-20 01:32:00,14.0,-2.0,-100.00,WNW,290,7.0,14.0,49,-99.99,,,-99.99,,2013-03-20 06:32:00,
2013-03-20 01:43:00,14.0,-2.0,-100.00,WNW,290,7.0,14.0,49,-99.99,,,-99.99,,2013-03-20 06:43:00,
2013-03-20 01:53:00,14.0,-2.0,-100.00,WNW,290,7.0,14.0,49,-99.99,,,-99.99,,2013-03-20 06:53:00,
2013-03-20 02:02:00,14.0,-2.0,-100.00,WNW,290,7.0,14.0,49,-99.99,,,-99.99,,2013-03-20 07:02:00,
2013-03-20 02:32:00,13.0,-2.0,-100.00,WNW,290,10.0,14.0,51,-99.99,,,-99.99,,2013-03-20 07:32:00,
2013-03-20 02:42:00,13.0,-2.0,-100.00,WNW,290,10.0,14.0,51,-99.99,,,-99.99,,2013-03-20 07:42:00,
2013-03-20 02:52:00,13.0,-2.0,-100.00,WNW,290,10.0,14.0,51,-99.99,,,-99.99,,2013-03-20 07:52:00,
2013-03-20 03:02:00,13.0,-2.0,-100.00,WNW,290,10.0,14.0,51,-99.99,,,-99.99,,2013-03-20 08:02:00,
2013-03-20 03:32:00,11.0,-3.0,-100.00,WNW,290,10.0,20.0,52,-99.99,,,-99.99,,2013-03-20 08:32:00,
2013-03-20 03:42:00,11.0,-3.0,-100.00,WNW,290,10.0,20.0,52,-99.99,,,-99.99,,2013-03-20 08:42:00,
2013-03-20 03:52:00,11.0,-3.0,-100.00,WNW,290,10.0,20.0,52,-99.99,,,-99.99,,2013-03-20 08:52:00,
2013-03-20 04:02:00,11.0,-3.0,-100.00,WNW,290,10.0,20.0,52,-99.99,,,-99.99,,2013-03-20 09:02:00,
2013-03-20 04:33:00,10.0,-4.0,-100.00,WNW,290,14.0,19.0,52,-99.99,,,-99.99,,2013-03-20 09:33:00,
2013-03-20 04:43:00,10.0,-4.0,-100.00,WNW,290,14.0,19.0,52,-99.99,,,-99.99,,2013-03-20 09:43:00,
2013-03-20 04:53:00,10.0,-4.0,-100.00,WNW,290,14.0,19.0,52,-99.99,,,-99.99,,2013-03-20 09:53:00,
2013-03-20 05:03:00,10.0,-4.0,-100.00,WNW,290,14.0,19.0,52,-99.99,,,-99.99,,2013-03-20 10:03:00,
2013-03-20 05:33:00,9.0,-5.0,-100.00,WNW,295,13.0,20.0,52,-99.99,,,-99.99,,2013-03-20 10:33:00,
2013-03-20 05:43:00,9.0,-5.0,-100.00,WNW,295,13.0,20.0,52,-99.99,,,-99.99,,2013-03-20 10:43:00,
2013-03-20 05:53:00,9.0,-5.0,-100.00,WNW,295,13.0,20.0,52,-99.99,,,-99.99,,2013-03-20 10:53:00,
2013-03-20 06:03:00,9.0,-5.0,-100.00,WNW,295,13.0,20.0,52,-99.99,,,-99.99,,2013-03-20 11:03:00,
2013-03-20 06:32:00,8.0,-6.0,-100.00,WNW,300,12.0,17.0,53,-99.99,,,-99.99,,2013-03-20 11:32:00,
2013-03-20 06:42:00,8.0,-6.0,-100.00,WNW,300,12.0,17.0,53,-99.99,,,-99.99,,2013-03-20 11:42:00,
2013-03-20 06:52:00,8.0,-6.0,-100.00,WNW,300,12.0,17.0,53,-99.99,,,-99.99,,2013-03-20 11:52:00,
2013-03-20 07:02:00,8.0,-6.0,-100.00,WNW,300,12.0,17.0,53,-99.99,,,-99.99,,2013-03-20 12:02:00,
2013-03-20 07:33:00,7.0,-7.0,-100.00,WNW,285,11.0,17.0,53,-99.99,,,-99.99,,2013-03-20 12:33:00,
2013-03-20 07:43:00,7.0,-7.0,-100.00,WNW,285,11.0,17.0,53,-99.99,,,-99.99,,2013-03-20 12:43:00,
2013-03-20 07:52:00,7.0,-7.0,-100.00,WNW,285,11.0,17.0,53,-99.99,,,-99.99,,2013-03-20 12:52:00,
2013-03-20 08:03:00,7.0,-7.0,-100.00,WNW,285,11.0,17.0,53,-99.99,,,-99.99,,2013-03-20 13:03:00,
2013-03-20 08:32:00,8.0,-6.0,-100.00,WNW,295,11.0,21.0,52,-99.99,,,-99.99,,2013-03-20 13:32:00,
2013-03-20 08:43:00,8.0,-6.0,-100.00,WNW,295,11.0,21.0,52,-99.99,,,-99.99,,2013-03-20 13:43:00,
2013-03-20 08:53:00,8.0,-6.0,-100.00,WNW,295,11.0,21.0,52,-99.99,,,-99.99,,2013-03-20 13:53:00,
2013-03-20 09:02:00,8.0,-6.0,-100.00,WNW,295,11.0,21.0,52,-99.99,,,-99.99,,2013-03-20 14:02:00,
2013-03-20 09:34:00,9.0,-5.0,-100.00,WNW,295,11.0,22.0,51,-99.99,,,-99.99,,2013-03-20 14:34:00,
2013-03-20 09:43:00,9.0,-5.0,-100.00,WNW,295,11.0,22.0,51,-99.99,,,-99.99,,2013-03-20 14:43:00,
2013-03-20 09:52:00,9.0,-5.0,-100.00,WNW,295,11.0,22.0,51,-99.99,,,-99.99,,2013-03-20 14:52:00,
2013-03-20 10:02:00,9.0,-5.0,-100.00,WNW,295,11.0,22.0,51,-99.99,,,-99.99,,2013-03-20 15:02:00,
2013-03-20 10:33:00,12.0,-3.0,-100.00,WNW,290,9.0,19.0,50,-99.99,,,-99.99,,2013-03-20 15:33:00,
2013-03-20 10:43:00,12.0,-3.0,-100.00,WNW,290,9.0,19.0,50,-99.99,,,-99.99,,2013-03-20 15:43:00,
2013-03-20 10:53:00,12.0,-3.0,-100.00,WNW,290,9.0,19.0,50,-99.99,,,-99.99,,2013-03-20 15:53:00,
2013-03-20 11:03:00,12.0,-3.0,-100.00,WNW,290,9.0,19.0,50,-99.99,,,-99.99,,2013-03-20 16:03:00,
2013-03-20 11:33:00,14.0,-2.0,-100.00,WNW,290,9.0,21.0,48,-99.99,,,-99.99,,2013-03-20 16:33:00,
2013-03-20 11:43:00,14.0,-2.0,-100.00,WNW,290,9.0,21.0,48,-99.99,,,-99.99,,2013-03-20 16:43:00,
2013-03-20 11:53:00,14.0,-2.0,-100.00,WNW,290,9.0,21.0,48,-99.99,,,-99.99,,2013-03-20 16:53:00,
2013-03-20 12:03:00,14.0,-2.0,-100.00,WNW,290,9.0,21.0,48,-99.99,,,-99.99,,2013-03-20 17:03:00,
2013-03-20 12:33:00,16.0,0.0,-100.00,WNW,295,15.0,21.0,48,-99.99,,,-99.99,,2013-03-20 17:33:00,
2013-03-20 12:42:00,16.0,0.0,-100.00,WNW,295,15.0,21.0,48,-99.99,,,-99.99,,2013-03-20 17:42:00,
2013-03-20 12:53:00,16.0,0.0,-100.00,WNW,295,15.0,21.0,48,-99.99,,,-99.99,,2013-03-20 17:53:00,
2013-03-20 13:02:00,16.0,0.0,-100.00,WNW,295,15.0,21.0,48,-99.99,,,-99.99,,2013-03-20 18:02:00,
2013-03-20 13:11:00,18.0,-1.0,-100.00,West,265,7.0,20.0,44,-99.99,,,-99.99,,2013-03-20 18:11:00,
2013-03-20 13:34:00,18.0,-1.0,-100.00,West,265,7.0,20.0,44,-99.99,,,-99.99,,2013-03-20 18:34:00,
2013-03-20 13:43:00,18.0,-1.0,-100.00,West,265,7.0,20.0,44,-99.99,,,-99.99,,2013-03-20 18:43:00,
2013-03-20 13:53:00,18.0,-1.0,-100.00,West,265,7.0,20.0,44,-99.99,,,-99.99,,2013-03-20 18:53:00,
2013-03-20 14:02:00,18.0,-1.0,-100.00,West,265,7.0,20.0,44,-99.99,,,-99.99,,2013-03-20 19:02:00,
2013-03-20 14:11:00,20.0,1.0,-100.00,WNW,300,9.0,19.0,44,-99.99,,,-99.99,,2013-03-20 19:11:00,
2013-03-20 14:33:00,20.0,1.0,-100.00,WNW,300,9.0,19.0,44,-99.99,,,-99.99,,2013-03-20 19:33:00,
2013-03-20 14:42:00,20.0,1.0,-100.00,WNW,300,9.0,19.0,44,-99.99,,,-99.99,,2013-03-20 19:42:00,
2013-03-20 14:53:00,20.0,1.0,-100.00,WNW,300,9.0,19.0,44,-99.99,,,-99.99,,2013-03-20 19:53:00,
2013-03-20 15:02:00,20.0,1.0,-100.00,WNW,300,9.0,19.0,44,-99.99,,,-99.99,,2013-03-20 20:02:00,
2013-03-20 15:11:00,19.0,1.0,-100.00,NW,310,12.0,21.0,44,-99.99,,,-99.99,,2013-03-20 20:11:00,
2013-03-20 15:32:00,19.0,1.0,-100.00,NW,310,12.0,21.0,44,-99.99,,,-99.99,,2013-03-20 20:32:00,
2013-03-20 15:42:00,19.0,1.0,-100.00,NW,310,12.0,21.0,44,-99.99,,,-99.99,,2013-03-20 20:42:00,
2013-03-20 15:53:00,19.0,1.0,-100.00,NW,310,12.0,21.0,44,-99.99,,,-99.99,,2013-03-20 20:53:00,
2013-03-20 16:02:00,19.0,1.0,-100.00,NW,310,12.0,21.0,44,-99.99,,,-99.99,,2013-03-20 21:02:00,
2013-03-20 16:12:00,21.0,2.0,-100.00,WNW,290,12.0,22.0,43,-99.99,,,-99.99,,2013-03-20 21:12:00,
2013-03-20 16:33:00,21.0,2.0,-100.00,WNW,290,12.0,22.0,43,-99.99,,,-99.99,,2013-03-20 21:33:00,
2013-03-20 16:42:00,21.0,2.0,-100.00,WNW,290,12.0,22.0,43,-99.99,,,-99.99,,2013-03-20 21:42:00,
2013-03-20 16:53:00,21.0,2.0,-100.00,WNW,290,12.0,22.0,43,-99.99,,,-99.99,,2013-03-20 21:53:00,
2013-03-20 17:03:00,21.0,2.0,-100.00,WNW,290,12.0,22.0,43,-99.99,,,-99.99,,2013-03-20 22:03:00,
2013-03-20 17:12:00,20.0,1.0,-100.00,WNW,300,12.0,22.0,44,-99.99,,,-99.99,,2013-03-20 22:12:00,
2013-03-20 17:33:00,20.0,1.0,-100.00,WNW,300,12.0,22.0,44,-99.99,,,-99.99,,2013-03-20 22:33:00,
2013-03-20 17:43:00,20.0,1.0,-100.00,WNW,300,12.0,22.0,44,-99.99,,,-99.99,,2013-03-20 22:43:00,
2013-03-20 17:53:00,20.0,1.0,-100.00,WNW,300,12.0,22.0,44,-99.99,,,-99.99,,2013-03-20 22:53:00,
2013-03-20 18:02:00,20.0,1.0,-100.00,WNW,300,12.0,22.0,44,-99.99,,,-99.99,,2013-03-20 23:02:00,
2013-03-20 18:11:00,19.0,1.0,-100.00,NW,310,7.0,18.0,45,-99.99,,,-99.99,,2013-03-20 23:11:00,
2013-03-20 18:33:00,19.0,1.0,-100.00,NW,310,7.0,18.0,45,-99.99,,,-99.99,,2013-03-20 23:33:00,
2013-03-20 18:43:00,19.0,1.0,-100.00,NW,310,7.0,18.0,45,-99.99,,,-99.99,,2013-03-20 23:43:00,
2013-03-20 18:53:00,19.0,1.0,-100.00,NW,310,7.0,18.0,45,-99.99,,,-99.99,,2013-03-20 23:53:00,
2013-03-20 19:02:00,19.0,1.0,-100.00,NW,310,7.0,18.0,45,-99.99,,,-99.99,,2013-03-21 00:02:00,
2013-03-20 19:10:00,17.0,0.0,-100.00,WNW,295,11.0,21.0,47,-99.99,,,-99.99,,2013-03-21 00:10:00,
2013-03-20 19:33:00,17.0,0.0,-100.00,WNW,295,11.0,21.0,47,-99.99,,,-99.99,,2013-03-21 00:33:00,
2013-03-20 19:42:00,17.0,0.0,-100.00,WNW,295,11.0,21.0,47,-99.99,,,-99.99,,2013-03-21 00:42:00,
2013-03-20 19:52:00,17.0,0.0,-100.00,WNW,295,11.0,21.0,47,-99.99,,,-99.99,,2013-03-21 00:52:00,
2013-03-20 20:02:00,17.0,0.0,-100.00,WNW,295,11.0,21.0,47,-99.99,,,-99.99,,2013-03-21 01:02:00,
2013-03-20 20:12:00,17.0,3.0,-100.00,NW,310,9.0,13.0,54,-99.99,,,-99.99,,2013-03-21 01:12:00,
2013-03-20 20:33:00,17.0,3.0,-100.00,NW,310,9.0,13.0,54,-99.99,,,-99.99,,2013-03-21 01:33:00,
2013-03-20 20:42:00,17.0,3.0,-100.00,NW,310,9.0,13.0,54,-99.99,,,-99.99,,2013-03-21 01:42:00,
2013-03-20 20:53:00,17.0,3.0,-100.00,NW,310,9.0,13.0,54,-99.99,,,-99.99,,2013-03-21 01:53:00,
2013-03-20 21:02:00,17.0,3.0,-100.00,NW,310,9.0,13.0,54,-99.99,,,-99.99,,2013-03-21 02:02:00,
2013-03-20 21:12:00,16.0,6.0,-100.00,NW,310,7.0,12.0,66,-99.99,,,-99.99,,2013-03-21 02:12:00,
2013-03-20 21:33:00,16.0,6.0,-100.00,NW,310,7.0,12.0,66,-99.99,,,-99.99,,2013-03-21 02:33:00,
2013-03-20 21:42:00,16.0,6.0,-100.00,NW,310,7.0,12.0,66,-99.99,,,-99.99,,2013-03-21 02:42:00,
2013-03-20 21:52:00,16.0,6.0,-100.00,NW,310,7.0,12.0,66,-99.99,,,-99.99,,2013-03-21 02:52:00,
2013-03-20 22:02:00,16.0,6.0,-100.00,NW,310,7.0,12.0,66,-99.99,,,-99.99,,2013-03-21 03:02:00,
2013-03-20 22:11:00,15.0,0.0,-100.00,NNW,330,7.0,12.0,53,-99.99,,,-99.99,,2013-03-21 03:11:00,
2013-03-20 22:33:00,15.0,0.0,-100.00,NNW,330,7.0,12.0,53,-99.99,,,-99.99,,2013-03-21 03:33:00,
2013-03-20 22:43:00,15.0,0.0,-100.00,NNW,330,7.0,12.0,53,-99.99,,,-99.99,,2013-03-21 03:43:00,
2013-03-20 22:53:00,15.0,0.0,-100.00,NNW,330,7.0,12.0,53,-99.99,,,-99.99,,2013-03-21 03:53:00,
2013-03-20 23:03:00,15.0,0.0,-100.00,NNW,330,7.0,12.0,53,-99.99,,,-99.99,,2013-03-21 04:03:00,
2013-03-20 23:11:00,13.0,-1.0,-100.00,NW,325,5.0,9.0,52,-99.99,,,-99.99,,2013-03-21 04:11:00,
2013-03-20 23:33:00,13.0,-1.0,-100.00,NW,325,5.0,9.0,52,-99.99,,,-99.99,,2013-03-21 04:33:00,
2013-03-20 23:43:00,13.0,-1.0,-100.00,NW,325,5.0,9.0,52,-99.99,,,-99.99,,2013-03-21 04:43:00,
2013-03-20 23:53:00,13.0,-1.0,-100.00,NW,325,5.0,9.0,52,-99.99,,,-99.99,,2013-03-21 04:53:00,